{"data":{"norad_id":66157,"intl_designator":"2025-240M","name":"STARLINK-35594","alt_names":[],"object_type":"PAYLOAD","status":"ACTIVE","operator":null,"country":"US","launch_date":"2025-10-25","launch_site_code":"AFWTR","launch_vehicle":null,"mission":null,"orbit_class":"UNKNOWN","rcs_meters":null,"size_class":null,"mass_kg":null,"dimensions":null,"purposes":["comms"],"wikipedia_slug":null,"has_3d_model":false,"image_url":null,"decayed_at":null,"tle_current":{"epoch":"2026-05-25T00:35:51.607104Z","epoch_age_seconds":76490,"freshness":"FRESH","line1":"1 66157U 25240M   26145.02490286  .00028839  00000+0  86134-3 0  9991","line2":"2 66157  53.1596  67.6781 0001244 107.6033 252.5105 15.34402041 33686","mean_motion":15.34402041,"eccentricity":0.0001244,"inclination_deg":53.1596,"raan_deg":67.6781,"arg_perigee_deg":107.6033,"mean_anomaly_deg":252.5105,"bstar":0.00086134,"rev_number":3368,"period_min":93.847633248814,"perigee_km":461.84617416047,"apogee_km":463.54817370294,"semimajor_km":6840.8341739317,"source":"CELESTRAK","updated_at":"2026-05-25T13:38:21.070858Z"}}}